This is the latest recevied weather packets stored in our database for station/object EA3AGY-13. If no packets are shown the sender has not sent any weather packets the latest 10 day(s).
| Time | Temp. | Humidity | Pressure | Rain* | Wind** | Luminosity | Snow |
|---|---|---|---|---|---|---|---|
| 1777907877 | 10.56° C | 29% | 1010.8 hPa | 0 mm | - | - | - |
| 1777907275 | 10° C | 27% | 1011 hPa | 0 mm | - | - | - |
| 1777906672 | 12.22° C | 28% | 1011 hPa | 0 mm | - | - | - |
| 1777905468 | 11.11° C | 24% | 1011 hPa | 0 mm | - | - | - |
| 1777904866 | 13.89° C | 22% | 1011 hPa | 0 mm | - | - | - |
| 1777903661 | 14.44° C | 22% | 1011 hPa | 0 mm | - | - | - |
| 1777903059 | 14.44° C | 23% | 1011 hPa | 0 mm | - | - | - |
| 1777902456 | 14.44° C | 24% | 1011 hPa | 0 mm | - | - | - |
| 1777901854 | 13.89° C | 22% | 1011 hPa | 0 mm | - | - | - |
| 1777901252 | 13.89° C | 22% | 1010.9 hPa | 0 mm | - | - | - |
| 1777898838 | 14.44° C | 24% | 1011 hPa | 0 mm | - | - | - |
| 1777898237 | 15° C | 27% | 1011 hPa | 0 mm | - | - | - |
| 1777896428 | 14.44° C | 25% | 1011.1 hPa | 0 mm | - | - | - |
| 1777894621 | 15° C | 24% | 1011.3 hPa | 0 mm | - | - | - |
| 1777893418 | 14.44° C | 20% | 1011.6 hPa | 0 mm | - | - | - |
| 1777892814 | 14.44° C | 23% | 1011.6 hPa | 0 mm | - | - | - |
| 1777892212 | 14.44° C | 24% | 1011.7 hPa | 0 mm | - | - | - |
| 1777889803 | 15° C | 32% | 1011.8 hPa | 0 mm | - | - | - |
| 1777888598 | 14.44° C | 37% | 1011.9 hPa | 0 mm | - | - | - |
| 1777886791 | 13.33° C | 39% | 1012 hPa | 0 mm | - | - | - |
| 1777884381 | 12.78° C | 41% | 1012.1 hPa | 0 mm | - | - | - |
| 1777883778 | 12.78° C | 42% | 1012.1 hPa | 0 mm | - | - | - |
| 1777883177 | 12.22° C | 42% | 1012.1 hPa | 0 mm | - | - | - |
| 1777882574 | 10.56° C | 39% | 1012.3 hPa | 0 mm | - | - | - |
| 1777881369 | 11.11° C | 41% | 1012.4 hPa | 0 mm | - | - | - |
* Rain since midnight (hover to see other rain measurements)
** Current wind speed in m/s (hover to see current wind gust speed)